Year,Month,Day,Hour,Minute,Value (Times are PST for temperature in C)
2013,06,23,00,00,13.40
2013,06,23,00,01,13.40
2013,06,23,00,02,13.30
2013,06,23,00,03,13.30
2013,06,23,00,04,13.30
2013,06,23,00,05,13.30
2013,06,23,00,06,13.30
2013,06,23,00,07,13.30
2013,06,23,00,08,13.30
2013,06,23,00,09,13.30
2013,06,23,00,10,13.30
2013,06,23,00,11,13.30
2013,06,23,00,12,13.30
2013,06,23,00,13,13.30
2013,06,23,00,14,13.30
2013,06,23,00,15,13.30
2013,06,23,00,16,13.30
2013,06,23,00,17,13.30
2013,06,23,00,18,13.30
2013,06,23,00,19,13.30
2013,06,23,00,20,13.30
2013,06,23,00,21,13.30
2013,06,23,00,22,13.30
2013,06,23,00,23,13.30
2013,06,23,00,24,13.30
2013,06,23,00,25,13.30
2013,06,23,00,26,13.30
2013,06,23,00,27,13.30
2013,06,23,00,28,13.30
2013,06,23,00,29,13.30
2013,06,23,00,30,13.30
2013,06,23,00,31,13.30
2013,06,23,00,32,13.30
2013,06,23,00,33,13.30
2013,06,23,00,34,13.30
2013,06,23,00,35,13.30
2013,06,23,00,36,13.30
2013,06,23,00,37,13.30
2013,06,23,00,38,13.30
2013,06,23,00,39,13.30
2013,06,23,00,40,13.30
2013,06,23,00,41,13.30
2013,06,23,00,42,13.30
2013,06,23,00,43,13.30
2013,06,23,00,44,13.30
2013,06,23,00,45,13.30
2013,06,23,00,46,13.30
2013,06,23,00,47,13.30
2013,06,23,00,48,13.30
2013,06,23,00,49,13.30
2013,06,23,00,50,13.30
2013,06,23,00,51,13.30
2013,06,23,00,52,13.30
2013,06,23,00,53,13.30
2013,06,23,00,54,13.30
2013,06,23,00,55,13.30
2013,06,23,00,56,13.30
2013,06,23,00,57,13.30
2013,06,23,00,58,13.30
2013,06,23,00,59,13.20
2013,06,23,01,00,13.20
2013,06,23,01,01,13.20
2013,06,23,01,02,13.20
2013,06,23,01,03,13.20
2013,06,23,01,04,13.20
2013,06,23,01,05,13.20
2013,06,23,01,06,13.20
2013,06,23,01,07,13.10
2013,06,23,01,08,13.10
2013,06,23,01,09,13.10
2013,06,23,01,10,13.00
2013,06,23,01,11,13.00
2013,06,23,01,12,12.90
2013,06,23,01,13,12.90
2013,06,23,01,14,12.90
2013,06,23,01,15,12.80
2013,06,23,01,16,12.80
2013,06,23,01,17,12.80
2013,06,23,01,18,12.80
2013,06,23,01,19,12.80
2013,06,23,01,20,12.80
2013,06,23,01,21,12.70
2013,06,23,01,22,12.70
2013,06,23,01,23,12.70
2013,06,23,01,24,12.70
2013,06,23,01,25,12.70
2013,06,23,01,26,12.70
2013,06,23,01,27,12.70
2013,06,23,01,28,12.70
2013,06,23,01,29,12.70
2013,06,23,01,30,12.70
2013,06,23,01,31,12.70
2013,06,23,01,32,12.70
2013,06,23,01,33,12.70
2013,06,23,01,34,12.70
2013,06,23,01,35,12.70
2013,06,23,01,36,12.70
2013,06,23,01,37,12.70
2013,06,23,01,38,12.70
2013,06,23,01,39,12.70
2013,06,23,01,40,12.70
2013,06,23,01,41,12.70
2013,06,23,01,42,12.70
2013,06,23,01,43,12.70
2013,06,23,01,44,12.70
2013,06,23,01,45,12.70
2013,06,23,01,46,12.70
2013,06,23,01,47,12.60
2013,06,23,01,48,12.60
2013,06,23,01,49,12.60
2013,06,23,01,50,12.60
2013,06,23,01,51,12.60
2013,06,23,01,52,12.60
2013,06,23,01,53,12.60
2013,06,23,01,54,12.60
2013,06,23,01,55,12.60
2013,06,23,01,56,12.60
2013,06,23,01,57,12.50
2013,06,23,01,58,12.50
2013,06,23,01,59,12.50
2013,06,23,02,00,12.50
2013,06,23,02,01,12.40
2013,06,23,02,02,12.40
2013,06,23,02,03,12.40
2013,06,23,02,04,12.40
2013,06,23,02,05,12.40
2013,06,23,02,06,12.40
2013,06,23,02,07,12.40
2013,06,23,02,08,12.40
2013,06,23,02,09,12.40
2013,06,23,02,10,12.40
2013,06,23,02,11,12.40
2013,06,23,02,12,12.40
2013,06,23,02,13,12.40
2013,06,23,02,14,12.40
2013,06,23,02,15,12.40
2013,06,23,02,16,12.40
2013,06,23,02,17,12.40
2013,06,23,02,18,12.40
2013,06,23,02,19,12.40
2013,06,23,02,20,12.40
2013,06,23,02,21,12.40
2013,06,23,02,22,12.40
2013,06,23,02,23,12.40
2013,06,23,02,24,12.40
2013,06,23,02,25,12.40
2013,06,23,02,26,12.40
2013,06,23,02,27,12.30
2013,06,23,02,28,12.30
2013,06,23,02,29,12.30
2013,06,23,02,30,12.30
2013,06,23,02,31,12.30
2013,06,23,02,32,12.30
2013,06,23,02,33,12.30
2013,06,23,02,34,12.30
2013,06,23,02,35,12.30
2013,06,23,02,36,12.30
2013,06,23,02,37,12.30
2013,06,23,02,38,12.30
2013,06,23,02,39,12.30
2013,06,23,02,40,12.30
2013,06,23,02,41,12.30
2013,06,23,02,42,12.30
2013,06,23,02,43,12.30
2013,06,23,02,44,12.30
2013,06,23,02,45,12.20
2013,06,23,02,46,12.20
2013,06,23,02,47,12.20
2013,06,23,02,48,12.20
2013,06,23,02,49,12.10
2013,06,23,02,50,12.10
2013,06,23,02,51,12.10
2013,06,23,02,52,12.10
2013,06,23,02,53,12.10
2013,06,23,02,54,12.00
2013,06,23,02,55,12.00
2013,06,23,02,56,12.00
2013,06,23,02,57,11.90
2013,06,23,02,58,11.90
2013,06,23,02,59,11.90
2013,06,23,03,00,11.90
2013,06,23,03,01,11.80
2013,06,23,03,02,11.80
2013,06,23,03,03,11.80
2013,06,23,03,04,11.80
2013,06,23,03,05,11.80
2013,06,23,03,06,11.70
2013,06,23,03,07,11.70
2013,06,23,03,08,11.70
2013,06,23,03,09,11.70
2013,06,23,03,10,11.60
2013,06,23,03,11,11.60
2013,06,23,03,12,11.60
2013,06,23,03,13,11.60
2013,06,23,03,14,11.60
2013,06,23,03,15,11.60
2013,06,23,03,16,11.60
2013,06,23,03,17,11.60
2013,06,23,03,18,11.60
2013,06,23,03,19,11.50
2013,06,23,03,20,11.50
2013,06,23,03,21,11.40
2013,06,23,03,22,11.40
2013,06,23,03,23,11.30
2013,06,23,03,24,11.30
2013,06,23,03,25,11.30
2013,06,23,03,26,11.30
2013,06,23,03,27,11.30
2013,06,23,03,28,11.20
2013,06,23,03,29,11.20
2013,06,23,03,30,11.20
2013,06,23,03,31,11.20
2013,06,23,03,32,11.20
2013,06,23,03,33,11.20
2013,06,23,03,34,11.10
2013,06,23,03,35,11.20
2013,06,23,03,36,11.20
2013,06,23,03,37,11.20
2013,06,23,03,38,11.20
2013,06,23,03,39,11.20
2013,06,23,03,40,11.20
2013,06,23,03,41,11.20
2013,06,23,03,42,11.10
2013,06,23,03,43,11.10
2013,06,23,03,44,11.10
2013,06,23,03,45,11.10
2013,06,23,03,46,11.10
2013,06,23,03,47,11.10
2013,06,23,03,48,11.10
2013,06,23,03,49,11.00
2013,06,23,03,50,11.00
2013,06,23,03,51,11.00
2013,06,23,03,52,11.00
2013,06,23,03,53,10.90
2013,06,23,03,54,10.90
2013,06,23,03,55,10.90
2013,06,23,03,56,10.90
2013,06,23,03,57,10.90
2013,06,23,03,58,10.90
2013,06,23,03,59,10.90
2013,06,23,04,00,10.90
2013,06,23,04,01,10.90
2013,06,23,04,02,10.90
2013,06,23,04,03,10.90
2013,06,23,04,04,10.90
2013,06,23,04,05,10.90
2013,06,23,04,06,10.90
2013,06,23,04,07,10.90
2013,06,23,04,08,10.90
2013,06,23,04,09,10.90
2013,06,23,04,10,10.90
2013,06,23,04,11,10.90
2013,06,23,04,12,10.90
2013,06,23,04,13,10.90
2013,06,23,04,14,10.90
2013,06,23,04,15,10.90
2013,06,23,04,16,11.00
2013,06,23,04,17,11.00
2013,06,23,04,18,11.00
2013,06,23,04,19,11.00
2013,06,23,04,20,11.00
2013,06,23,04,21,11.10
2013,06,23,04,22,11.10
2013,06,23,04,23,11.10
2013,06,23,04,24,11.00
2013,06,23,04,25,11.00
2013,06,23,04,26,11.00
2013,06,23,04,27,11.00
2013,06,23,04,28,11.00
2013,06,23,04,29,11.00
2013,06,23,04,30,10.90
2013,06,23,04,31,10.90
2013,06,23,04,32,10.90
2013,06,23,04,33,10.90
2013,06,23,04,34,10.90
2013,06,23,04,35,10.90
2013,06,23,04,36,10.90
2013,06,23,04,37,10.80
2013,06,23,04,38,10.80
2013,06,23,04,39,10.80
2013,06,23,04,40,10.80
2013,06,23,04,41,10.80
2013,06,23,04,42,10.80
2013,06,23,04,43,10.80
2013,06,23,04,44,10.70
2013,06,23,04,45,10.70
2013,06,23,04,46,10.70
2013,06,23,04,47,10.60
2013,06,23,04,48,10.60
2013,06,23,04,49,10.60
2013,06,23,04,50,10.60
2013,06,23,04,51,10.50
2013,06,23,04,52,10.50
2013,06,23,04,53,10.50
2013,06,23,04,54,10.40
2013,06,23,04,55,10.40
2013,06,23,04,56,10.50
2013,06,23,04,57,10.50
2013,06,23,04,58,10.50
2013,06,23,04,59,10.50
2013,06,23,05,00,10.50
2013,06,23,05,01,10.50
2013,06,23,05,02,10.50
2013,06,23,05,03,10.50
2013,06,23,05,04,10.40
2013,06,23,05,05,10.40
2013,06,23,05,06,10.40
2013,06,23,05,07,10.40
2013,06,23,05,08,10.40
2013,06,23,05,09,10.40
2013,06,23,05,10,10.40
2013,06,23,05,11,10.30
2013,06,23,05,12,10.30
2013,06,23,05,13,10.30
2013,06,23,05,14,10.30
2013,06,23,05,15,10.30
2013,06,23,05,16,10.30
2013,06,23,05,17,10.30
2013,06,23,05,18,10.30
2013,06,23,05,19,10.30
2013,06,23,05,20,10.30
2013,06,23,05,21,10.30
2013,06,23,05,22,10.30
2013,06,23,05,23,10.30
2013,06,23,05,24,10.30
2013,06,23,05,25,10.30
2013,06,23,05,26,10.30
2013,06,23,05,27,10.30
2013,06,23,05,28,10.30
2013,06,23,05,29,10.30
2013,06,23,05,30,10.40
2013,06,23,05,31,10.40
2013,06,23,05,32,10.50
2013,06,23,05,33,10.50
2013,06,23,05,34,10.60
2013,06,23,05,35,10.60
2013,06,23,05,36,10.60
2013,06,23,05,37,10.70
2013,06,23,05,38,10.70
2013,06,23,05,39,10.70
2013,06,23,05,40,10.70
2013,06,23,05,41,10.70
2013,06,23,05,42,10.80
2013,06,23,05,43,10.80
2013,06,23,05,44,10.80
2013,06,23,05,45,10.80
2013,06,23,05,46,10.80
2013,06,23,05,47,10.80
2013,06,23,05,48,10.80
2013,06,23,05,49,10.80
2013,06,23,05,50,10.80
2013,06,23,05,51,10.90
2013,06,23,05,52,10.90
2013,06,23,05,53,10.80
2013,06,23,05,54,10.80
2013,06,23,05,55,10.80
2013,06,23,05,56,10.80
2013,06,23,05,57,10.80
2013,06,23,05,58,10.80
2013,06,23,05,59,10.80
2013,06,23,06,00,10.90
2013,06,23,06,01,10.90
2013,06,23,06,02,10.90
2013,06,23,06,03,10.90
2013,06,23,06,04,11.00
2013,06,23,06,05,11.00
2013,06,23,06,06,11.10
2013,06,23,06,07,11.10
2013,06,23,06,08,11.10
2013,06,23,06,09,11.20
2013,06,23,06,10,11.20
2013,06,23,06,11,11.30
2013,06,23,06,12,11.30
2013,06,23,06,13,11.40
2013,06,23,06,14,11.50
2013,06,23,06,15,11.50
2013,06,23,06,16,11.60
2013,06,23,06,17,11.70
2013,06,23,06,18,11.70
2013,06,23,06,19,11.80
2013,06,23,06,20,11.80
2013,06,23,06,21,11.90
2013,06,23,06,22,11.90
2013,06,23,06,23,12.00
2013,06,23,06,24,12.10
2013,06,23,06,25,12.10
2013,06,23,06,26,12.20
2013,06,23,06,27,12.30
2013,06,23,06,28,12.40
2013,06,23,06,29,12.50
2013,06,23,06,30,12.60
2013,06,23,06,31,12.60
2013,06,23,06,32,12.70
2013,06,23,06,33,12.80
2013,06,23,06,34,12.90
2013,06,23,06,35,13.00
2013,06,23,06,36,13.10
2013,06,23,06,37,13.20
2013,06,23,06,38,13.30
2013,06,23,06,39,13.50
2013,06,23,06,40,13.60
2013,06,23,06,41,13.70
2013,06,23,06,42,13.80
2013,06,23,06,43,13.90
2013,06,23,06,44,14.10
2013,06,23,06,45,14.20
2013,06,23,06,46,14.30
2013,06,23,06,47,14.40
2013,06,23,06,48,14.60
2013,06,23,06,49,14.80
2013,06,23,06,50,15.00
2013,06,23,06,51,15.00
2013,06,23,06,52,15.20
2013,06,23,06,53,15.40
2013,06,23,06,54,15.60
2013,06,23,06,55,15.70
2013,06,23,06,56,15.80
2013,06,23,06,57,15.90
2013,06,23,06,58,16.10
2013,06,23,06,59,16.20
2013,06,23,07,00,16.30
2013,06,23,07,01,16.40
2013,06,23,07,02,16.50
2013,06,23,07,03,16.60
2013,06,23,07,04,16.70
2013,06,23,07,05,16.70
2013,06,23,07,06,16.80
2013,06,23,07,07,16.90
2013,06,23,07,08,16.90
2013,06,23,07,09,16.90
2013,06,23,07,10,17.00
2013,06,23,07,11,17.00
2013,06,23,07,12,17.00
2013,06,23,07,13,16.90
2013,06,23,07,14,16.90
2013,06,23,07,15,16.80
2013,06,23,07,16,16.80
2013,06,23,07,17,16.70
2013,06,23,07,18,16.70
2013,06,23,07,19,16.60
2013,06,23,07,20,16.50
2013,06,23,07,21,16.40
2013,06,23,07,22,16.30
2013,06,23,07,23,16.20
2013,06,23,07,24,16.10
2013,06,23,07,25,16.10
2013,06,23,07,26,16.00
2013,06,23,07,27,15.90
2013,06,23,07,28,15.90
2013,06,23,07,29,15.80
2013,06,23,07,30,15.80
2013,06,23,07,31,15.70
2013,06,23,07,32,15.70
2013,06,23,07,33,15.60
2013,06,23,07,34,15.60
2013,06,23,07,35,15.60
2013,06,23,07,36,15.50
2013,06,23,07,37,15.50
2013,06,23,07,38,15.50
2013,06,23,07,39,15.40
2013,06,23,07,40,15.40
2013,06,23,07,41,15.30
2013,06,23,07,42,15.30
2013,06,23,07,43,15.30
2013,06,23,07,44,15.20
2013,06,23,07,45,15.20
2013,06,23,07,46,15.20
2013,06,23,07,47,15.20
2013,06,23,07,48,15.20
2013,06,23,07,49,15.10
2013,06,23,07,50,15.10
2013,06,23,07,51,15.10
2013,06,23,07,52,15.10
2013,06,23,07,53,15.10
2013,06,23,07,54,15.10
2013,06,23,07,55,15.10
2013,06,23,07,56,15.10
2013,06,23,07,57,15.20
2013,06,23,07,58,15.20
2013,06,23,07,59,15.20
2013,06,23,08,00,15.20
2013,06,23,08,01,15.20
2013,06,23,08,02,15.20
2013,06,23,08,03,15.20
2013,06,23,08,04,15.20
2013,06,23,08,05,15.20
2013,06,23,08,06,15.20
2013,06,23,08,07,15.20
2013,06,23,08,08,15.20
2013,06,23,08,09,15.20
2013,06,23,08,10,15.20
2013,06,23,08,11,15.30
2013,06,23,08,12,15.30
2013,06,23,08,13,15.30
2013,06,23,08,14,15.30
2013,06,23,08,15,15.40
2013,06,23,08,16,15.40
2013,06,23,08,17,15.40
2013,06,23,08,18,15.50
2013,06,23,08,19,15.50
2013,06,23,08,20,15.60
2013,06,23,08,21,15.60
2013,06,23,08,22,15.60
2013,06,23,08,23,15.60
2013,06,23,08,24,15.60
2013,06,23,08,25,15.60
2013,06,23,08,26,15.60
2013,06,23,08,27,15.70
2013,06,23,08,28,15.70
2013,06,23,08,29,15.70
2013,06,23,08,30,15.70
2013,06,23,08,31,15.70
2013,06,23,08,32,15.70
2013,06,23,08,33,15.80
2013,06,23,08,34,15.80
2013,06,23,08,35,15.80
2013,06,23,08,36,15.80
2013,06,23,08,37,15.90
2013,06,23,08,38,15.90
2013,06,23,08,39,15.90
2013,06,23,08,40,15.90
2013,06,23,08,41,15.90
2013,06,23,08,42,16.00
2013,06,23,08,43,16.00
2013,06,23,08,44,16.00
2013,06,23,08,45,16.10
2013,06,23,08,46,16.10
2013,06,23,08,47,16.10
2013,06,23,08,48,16.10
2013,06,23,08,49,16.10
2013,06,23,08,50,16.10
2013,06,23,08,51,16.10
2013,06,23,08,52,16.20
2013,06,23,08,53,16.20
2013,06,23,08,54,16.20
2013,06,23,08,55,16.20
2013,06,23,08,56,16.30
2013,06,23,08,57,16.30
2013,06,23,08,58,16.30
2013,06,23,08,59,16.30
2013,06,23,09,00,16.40
2013,06,23,09,01,16.40
2013,06,23,09,02,16.40
2013,06,23,09,03,16.50
2013,06,23,09,04,16.50
2013,06,23,09,05,16.60
2013,06,23,09,06,16.60
2013,06,23,09,07,16.60
2013,06,23,09,08,16.60
2013,06,23,09,09,16.60
2013,06,23,09,10,16.60
2013,06,23,09,11,16.70
2013,06,23,09,12,16.70
2013,06,23,09,13,16.70
2013,06,23,09,14,16.70
2013,06,23,09,15,16.80
2013,06,23,09,16,16.80
2013,06,23,09,17,16.80
2013,06,23,09,18,16.80
2013,06,23,09,19,16.80
2013,06,23,09,20,16.80
2013,06,23,09,21,16.80
2013,06,23,09,22,16.80
2013,06,23,09,23,16.80
2013,06,23,09,24,16.80
2013,06,23,09,25,16.80
2013,06,23,09,26,16.80
2013,06,23,09,27,16.80
2013,06,23,09,28,16.80
2013,06,23,09,29,16.80
2013,06,23,09,30,16.90
2013,06,23,09,31,16.90
2013,06,23,09,32,16.90
2013,06,23,09,33,16.90
2013,06,23,09,34,16.90
2013,06,23,09,35,16.90
2013,06,23,09,36,16.90
2013,06,23,09,37,16.90
2013,06,23,09,38,16.90
2013,06,23,09,39,16.90
2013,06,23,09,40,16.90
2013,06,23,09,41,16.90
2013,06,23,09,42,16.90
2013,06,23,09,43,16.90
2013,06,23,09,44,16.80
2013,06,23,09,45,16.80
2013,06,23,09,46,16.80
2013,06,23,09,47,16.80
2013,06,23,09,48,16.80
2013,06,23,09,49,16.80
2013,06,23,09,50,16.80
2013,06,23,09,51,16.80
2013,06,23,09,52,16.80
2013,06,23,09,53,16.80
2013,06,23,09,54,16.80
2013,06,23,09,55,16.80
2013,06,23,09,56,16.80
2013,06,23,09,57,16.80
2013,06,23,09,58,16.80
2013,06,23,09,59,16.80
2013,06,23,10,00,16.80
2013,06,23,10,01,16.80
2013,06,23,10,02,16.80
2013,06,23,10,03,16.80
2013,06,23,10,04,16.90
2013,06,23,10,05,16.90
2013,06,23,10,06,16.90
2013,06,23,10,07,17.00
2013,06,23,10,08,17.00
2013,06,23,10,09,17.00
2013,06,23,10,10,17.10
2013,06,23,10,11,17.10
2013,06,23,10,12,17.10
2013,06,23,10,13,17.10
2013,06,23,10,14,17.10
2013,06,23,10,15,17.10
2013,06,23,10,16,17.10
2013,06,23,10,17,17.10
2013,06,23,10,18,17.10
2013,06,23,10,19,17.10
2013,06,23,10,20,17.10
2013,06,23,10,21,17.10
2013,06,23,10,22,17.10
2013,06,23,10,23,17.10
2013,06,23,10,24,17.10
2013,06,23,10,25,17.10
2013,06,23,10,26,17.10
2013,06,23,10,27,17.20
2013,06,23,10,28,17.20
2013,06,23,10,29,17.20
2013,06,23,10,30,17.20
2013,06,23,10,31,17.20
2013,06,23,10,32,17.20
2013,06,23,10,33,17.30
2013,06,23,10,34,17.40
2013,06,23,10,35,17.40
2013,06,23,10,36,17.40
2013,06,23,10,37,17.40
2013,06,23,10,38,17.50
2013,06,23,10,39,17.50
2013,06,23,10,40,17.60
2013,06,23,10,41,17.70
2013,06,23,10,42,17.70
2013,06,23,10,43,17.70
2013,06,23,10,44,17.80
2013,06,23,10,45,17.80
2013,06,23,10,46,17.90
2013,06,23,10,47,17.90
2013,06,23,10,48,17.90
2013,06,23,10,49,17.80
2013,06,23,10,50,17.80
2013,06,23,10,51,17.80
2013,06,23,10,52,17.70
2013,06,23,10,53,17.60
2013,06,23,10,54,17.50
2013,06,23,10,55,17.40
2013,06,23,10,56,17.40
2013,06,23,10,57,17.40
2013,06,23,10,58,17.40
2013,06,23,10,59,17.50
2013,06,23,11,00,17.50
2013,06,23,11,01,17.50
2013,06,23,11,02,17.50
2013,06,23,11,03,17.40
2013,06,23,11,04,17.30
2013,06,23,11,05,17.20
2013,06,23,11,06,17.20
2013,06,23,11,07,17.10
2013,06,23,11,08,17.00
2013,06,23,11,09,16.90
2013,06,23,11,10,16.90
2013,06,23,11,11,16.80
2013,06,23,11,12,16.80
2013,06,23,11,13,16.80
2013,06,23,11,14,16.80
2013,06,23,11,15,16.70
2013,06,23,11,16,16.70
2013,06,23,11,17,16.70
2013,06,23,11,18,16.70
2013,06,23,11,19,16.70
2013,06,23,11,20,16.60
2013,06,23,11,21,16.60
2013,06,23,11,22,16.60
2013,06,23,11,23,16.70
2013,06,23,11,24,16.70
2013,06,23,11,25,16.70
2013,06,23,11,26,16.70
2013,06,23,11,27,16.70
2013,06,23,11,28,16.70
2013,06,23,11,29,16.70
2013,06,23,11,30,16.70
2013,06,23,11,31,16.70
2013,06,23,11,32,16.70
2013,06,23,11,33,16.70
2013,06,23,11,34,16.70
2013,06,23,11,35,16.70
2013,06,23,11,36,16.80
2013,06,23,11,37,16.80
2013,06,23,11,38,16.80
2013,06,23,11,39,16.80
2013,06,23,11,40,16.80
2013,06,23,11,41,16.80
2013,06,23,11,42,16.90
2013,06,23,11,43,16.90
2013,06,23,11,44,17.00
2013,06,23,11,45,17.10
2013,06,23,11,46,17.20
2013,06,23,11,47,17.20
2013,06,23,11,48,17.10
2013,06,23,11,49,17.10
2013,06,23,11,50,17.00
2013,06,23,11,51,17.00
2013,06,23,11,52,17.00
2013,06,23,11,53,17.00
2013,06,23,11,54,16.90
2013,06,23,11,55,16.90
2013,06,23,11,56,16.90
2013,06,23,11,57,16.90
2013,06,23,11,58,16.80
2013,06,23,11,59,16.80
2013,06,23,12,00,16.70
2013,06,23,12,01,16.70
2013,06,23,12,02,16.60
2013,06,23,12,03,16.60
2013,06,23,12,04,16.60
2013,06,23,12,05,16.60
2013,06,23,12,06,16.60
2013,06,23,12,07,16.50
2013,06,23,12,08,16.60
2013,06,23,12,09,16.50
2013,06,23,12,10,16.50
2013,06,23,12,11,16.50
2013,06,23,12,12,16.40
2013,06,23,12,13,16.40
2013,06,23,12,14,16.40
2013,06,23,12,15,16.40
2013,06,23,12,16,16.50
2013,06,23,12,17,16.40
2013,06,23,12,18,16.40
2013,06,23,12,19,16.40
2013,06,23,12,20,16.40
2013,06,23,12,21,16.40
2013,06,23,12,22,16.40
2013,06,23,12,23,16.40
2013,06,23,12,24,16.40
2013,06,23,12,25,16.40
2013,06,23,12,26,16.40
2013,06,23,12,27,16.40
2013,06,23,12,28,16.40
2013,06,23,12,29,16.40
2013,06,23,12,30,16.40
2013,06,23,12,31,16.40
2013,06,23,12,32,16.40
2013,06,23,12,33,16.40
2013,06,23,12,34,16.40
2013,06,23,12,35,16.40
2013,06,23,12,36,16.40
2013,06,23,12,37,16.40
2013,06,23,12,38,16.40
2013,06,23,12,39,16.40
2013,06,23,12,40,16.40
2013,06,23,12,41,16.40
2013,06,23,12,42,16.30
2013,06,23,12,43,16.30
2013,06,23,12,44,16.30
2013,06,23,12,45,16.20
2013,06,23,12,46,16.20
2013,06,23,12,47,16.20
2013,06,23,12,48,16.20
2013,06,23,12,49,16.20
2013,06,23,12,50,16.20
2013,06,23,12,51,16.10
2013,06,23,12,52,16.10
2013,06,23,12,53,16.10
2013,06,23,12,54,16.10
2013,06,23,12,55,16.10
2013,06,23,12,56,16.10
2013,06,23,12,57,16.10
2013,06,23,12,58,16.10
2013,06,23,12,59,16.10
2013,06,23,13,00,16.10
2013,06,23,13,01,16.20
2013,06,23,13,02,16.20
2013,06,23,13,03,16.20
2013,06,23,13,04,16.20
2013,06,23,13,05,16.30
2013,06,23,13,06,16.30
2013,06,23,13,07,16.30
2013,06,23,13,08,16.30
2013,06,23,13,09,16.30
2013,06,23,13,10,16.30
2013,06,23,13,11,16.30
2013,06,23,13,12,16.30
2013,06,23,13,13,16.30
2013,06,23,13,14,16.30
2013,06,23,13,15,16.30
2013,06,23,13,16,16.30
2013,06,23,13,17,16.30
2013,06,23,13,18,16.30
2013,06,23,13,19,16.20
2013,06,23,13,20,16.20
2013,06,23,13,21,16.30
2013,06,23,13,22,16.30
2013,06,23,13,23,16.30
2013,06,23,13,24,16.30
2013,06,23,13,25,16.30
2013,06,23,13,26,16.30
2013,06,23,13,27,16.30
2013,06,23,13,28,16.40
2013,06,23,13,29,16.40
2013,06,23,13,30,16.50
2013,06,23,13,31,16.60
2013,06,23,13,32,16.60
2013,06,23,13,33,16.60
2013,06,23,13,34,16.60
2013,06,23,13,35,16.60
2013,06,23,13,36,16.60
2013,06,23,13,37,16.50
2013,06,23,13,38,16.50
2013,06,23,13,39,16.40
2013,06,23,13,40,16.40
2013,06,23,13,41,16.40
2013,06,23,13,42,16.30
2013,06,23,13,43,16.30
2013,06,23,13,44,16.30
2013,06,23,13,45,16.30
2013,06,23,13,46,16.30
2013,06,23,13,47,16.30
2013,06,23,13,48,16.40
2013,06,23,13,49,16.40
2013,06,23,13,50,16.40
2013,06,23,13,51,16.30
2013,06,23,13,52,16.30
2013,06,23,13,53,16.30
2013,06,23,13,54,16.30
2013,06,23,13,55,16.30
2013,06,23,13,56,16.30
2013,06,23,13,57,16.30
2013,06,23,13,58,16.30
2013,06,23,13,59,16.30
2013,06,23,14,00,16.30
2013,06,23,14,01,16.30
2013,06,23,14,02,16.30
2013,06,23,14,03,16.30
2013,06,23,14,04,16.30
2013,06,23,14,05,16.40
2013,06,23,14,06,16.40
2013,06,23,14,07,16.40
2013,06,23,14,08,16.40
2013,06,23,14,09,16.40
2013,06,23,14,10,16.50
2013,06,23,14,11,16.50
2013,06,23,14,12,16.60
2013,06,23,14,13,16.60
2013,06,23,14,14,16.60
2013,06,23,14,15,16.50
2013,06,23,14,16,16.50
2013,06,23,14,17,16.50
2013,06,23,14,18,16.50
2013,06,23,14,19,16.60
2013,06,23,14,20,16.60
2013,06,23,14,21,16.60
2013,06,23,14,22,16.60
2013,06,23,14,23,16.60
2013,06,23,14,24,16.60
2013,06,23,14,25,16.60
2013,06,23,14,26,16.60
2013,06,23,14,27,16.60
2013,06,23,14,28,16.60
2013,06,23,14,29,16.60
2013,06,23,14,30,16.60
2013,06,23,14,31,16.70
2013,06,23,14,32,16.70
2013,06,23,14,33,16.60
2013,06,23,14,34,16.60
2013,06,23,14,35,16.60
2013,06,23,14,36,16.50
2013,06,23,14,37,16.40
2013,06,23,14,38,16.40
2013,06,23,14,39,16.40
2013,06,23,14,40,16.40
2013,06,23,14,41,16.30
2013,06,23,14,42,16.30
2013,06,23,14,43,16.30
2013,06,23,14,44,16.30
2013,06,23,14,45,16.30
2013,06,23,14,46,16.30
2013,06,23,14,47,16.30
2013,06,23,14,48,16.40
2013,06,23,14,49,16.40
2013,06,23,14,50,16.40
2013,06,23,14,51,16.40
2013,06,23,14,52,16.40
2013,06,23,14,53,16.40
2013,06,23,14,54,16.50
2013,06,23,14,55,16.50
2013,06,23,14,56,16.50
2013,06,23,14,57,16.50
2013,06,23,14,58,16.50
2013,06,23,14,59,16.50
2013,06,23,15,00,16.60
2013,06,23,15,01,16.50
2013,06,23,15,02,16.50
2013,06,23,15,03,16.50
2013,06,23,15,04,16.50
2013,06,23,15,05,16.50
2013,06,23,15,06,16.50
2013,06,23,15,07,16.60
2013,06,23,15,08,16.60
2013,06,23,15,09,16.60
2013,06,23,15,10,16.70
2013,06,23,15,11,16.70
2013,06,23,15,12,16.70
2013,06,23,15,13,16.70
2013,06,23,15,14,16.70
2013,06,23,15,15,16.60
2013,06,23,15,16,16.60
2013,06,23,15,17,16.60
2013,06,23,15,18,16.60
2013,06,23,15,19,16.60
2013,06,23,15,20,16.60
2013,06,23,15,21,16.60
2013,06,23,15,22,16.60
2013,06,23,15,23,16.60
2013,06,23,15,24,16.60
2013,06,23,15,25,16.60
2013,06,23,15,26,16.60
2013,06,23,15,27,16.60
2013,06,23,15,28,16.70
2013,06,23,15,29,16.70
2013,06,23,15,30,16.70
2013,06,23,15,31,16.70
2013,06,23,15,32,16.70
2013,06,23,15,33,16.70
2013,06,23,15,34,16.70
2013,06,23,15,35,16.70
2013,06,23,15,36,16.70
2013,06,23,15,37,16.70
2013,06,23,15,38,16.70
2013,06,23,15,39,16.70
2013,06,23,15,40,16.70
2013,06,23,15,41,16.70
2013,06,23,15,42,16.70
2013,06,23,15,43,16.70
2013,06,23,15,44,16.70
2013,06,23,15,45,16.70
2013,06,23,15,46,16.70
2013,06,23,15,47,16.70
2013,06,23,15,48,16.70
2013,06,23,15,49,16.70
2013,06,23,15,50,16.70
2013,06,23,15,51,16.70
2013,06,23,15,52,16.70
2013,06,23,15,53,16.80
2013,06,23,15,54,16.80
2013,06,23,15,55,16.80
2013,06,23,15,56,16.80
2013,06,23,15,57,16.80
2013,06,23,15,58,16.80
2013,06,23,15,59,16.80
2013,06,23,16,00,16.90
2013,06,23,16,01,16.90
2013,06,23,16,02,16.90
2013,06,23,16,03,16.90
2013,06,23,16,04,16.90
2013,06,23,16,05,17.00
2013,06,23,16,06,17.00
2013,06,23,16,07,17.00
2013,06,23,16,08,17.00
2013,06,23,16,09,17.00
2013,06,23,16,10,17.10
2013,06,23,16,11,17.10
2013,06,23,16,12,17.10
2013,06,23,16,13,17.20
2013,06,23,16,14,17.10
2013,06,23,16,15,17.10
2013,06,23,16,16,17.20
2013,06,23,16,17,17.20
2013,06,23,16,18,17.20
2013,06,23,16,19,17.30
2013,06,23,16,20,17.30
2013,06,23,16,21,17.30
2013,06,23,16,22,17.30
2013,06,23,16,23,17.40
2013,06,23,16,24,17.40
2013,06,23,16,25,17.40
2013,06,23,16,26,17.40
2013,06,23,16,27,17.50
2013,06,23,16,28,17.50
2013,06,23,16,29,17.60
2013,06,23,16,30,17.60
2013,06,23,16,31,17.60
2013,06,23,16,32,17.50
2013,06,23,16,33,17.50
2013,06,23,16,34,17.50
2013,06,23,16,35,17.50
2013,06,23,16,36,17.50
2013,06,23,16,37,17.50
2013,06,23,16,38,17.40
2013,06,23,16,39,17.40
2013,06,23,16,40,17.40
2013,06,23,16,41,17.40
2013,06,23,16,42,17.40
2013,06,23,16,43,17.30
2013,06,23,16,44,17.30
2013,06,23,16,45,17.30
2013,06,23,16,46,17.30
2013,06,23,16,47,17.30
2013,06,23,16,48,17.30
2013,06,23,16,49,17.30
2013,06,23,16,50,17.30
2013,06,23,16,51,17.30
2013,06,23,16,52,17.30
2013,06,23,16,53,17.40
2013,06,23,16,54,17.40
2013,06,23,16,55,17.40
2013,06,23,16,56,17.40
2013,06,23,16,57,17.50
2013,06,23,16,58,17.50
2013,06,23,16,59,17.50
2013,06,23,17,00,17.50
2013,06,23,17,01,17.60
2013,06,23,17,02,17.60
2013,06,23,17,03,17.60
2013,06,23,17,04,17.60
2013,06,23,17,05,17.60
2013,06,23,17,06,17.50
2013,06,23,17,07,17.40
2013,06,23,17,08,17.40
2013,06,23,17,09,17.30
2013,06,23,17,10,17.30
2013,06,23,17,11,17.30
2013,06,23,17,12,17.20
2013,06,23,17,13,17.20
2013,06,23,17,14,17.20
2013,06,23,17,15,17.10
2013,06,23,17,16,17.10
2013,06,23,17,17,17.10
2013,06,23,17,18,17.10
2013,06,23,17,19,17.10